User: anonymous   Login
Location: Caltech
(34.1382°N, 118.1253°W)
Time: 09:04:58
(UTC-07:00)
Language:

NOSS 3-2 (A) - Orbit

View from above orbital plane
View from above orbital plane
View from above satellite
View from above satellite

Ground track
Ground track

The orbit data is extracted from the following two-line orbital elements,

1 28095U 03054A   15140.86141758 0.00000000  00000-0  00000-0 0    00
2 28095  63.4280  87.3244 0240000 358.1515   1.8485 13.41314262    04
Epoch (UTC): 20 May 2015 20:40:26
Eccentricity: 0.0240000
inclination: 63.4280°
perigee height: 925 km
apogee height: 1284 km
right ascension of ascending node: 87.3244°
argument of perigee: 358.1515°
revolutions per day: 13.41314262
mean anomaly at epoch: 1.8485°
orbit number at epoch: 0

The dashed part of the orbit path shows where the satellite is in the earth's shadow,  

DLR